Osceola Municipal, IA

12:16 AM CDT on April 29, 2017 (GMT -0500)
Osceola Municipal

Weather History for KI75 - January, 2013

Change the Weather History Date:

Sunday, January 6, 2013

  Actual Average (KCNC) Record (KCNC)
Temperature  
Mean Temperature 26 °F -  
Max Temperature 34 °F 30 °F 55 °F (2012)
Min Temperature 17 °F 11 °F -23 °F (1971)
Degree Days  
Heating Degree Days 40    
Moisture  
Dew Point 17 °F    
Average Humidity 71    
Maximum Humidity 84    
Minimum Humidity 56    
Precipitation  
Precipitation 0.00 in - - ()
Sea Level Pressure  
Sea Level Pressure 30.22 in    
Wind  
Wind Speed 12 mph (WSW)    
Max Wind Speed 22 mph    
Max Gust Speed 29 mph    
Visibility 10 miles    
Events      
Averages and records for this station are not official NWS values.
T = Trace of Precipitation, MM = Missing Value Source: NWS Daily Summary

Daily Weather History Graph

Daily Weather History Graph

Search for Another Location

Airport or City:

Trip Planner

Search our weather history database for the weather conditions in past years. The results will help you decide how hot, cold, wet, or windy it might be!

Date:

Astronomy

Jan. 06, 2013 Rise Set
Actual Time 7:39 AM CST 5:01 PM CST
Civil Twilight 7:09 AM CST 5:32 PM CST
Nautical Twilight 6:34 AM CST 6:07 PM CST
Astronomical Twilight 6:01 AM CST 6:40 PM CST
Moon 1:53 AM CST (1/6) 12:30 PM CST (1/6)
Length of Visible Light 10h 23m
Length of Day
9h 22m
Waning Crescent, 33% of the Moon is Illuminated
Jan 6
Waning Crescent
Jan 11
New
Jan 18
First Quarter
Jan 26
Full
Feb 3
Last Quarter

Hourly Weather History & Observations

Time (CST) Temp. Windchill Dew Point Humidity Pressure Visibility Wind Dir Wind Speed Gust Speed Precip Events Conditions
12:15 AM 26.4 °F 13.2 °F 19.8 °F 76% 30.09 in 10.0 mi WNW 18.4 mph 27.6 mph N/A   Overcast
12:35 AM 25.2 °F 10.4 °F 18.3 °F 75% 30.09 in 10.0 mi WNW 21.9 mph 28.8 mph N/A   Overcast
12:55 AM 24.8 °F 11.5 °F 18.3 °F 76% 30.09 in 10.0 mi WNW 17.3 mph 24.2 mph N/A   Overcast
1:15 AM 24.6 °F 10.5 °F 18.5 °F 78% 30.09 in 10.0 mi WNW 19.6 mph 24.2 mph N/A   Overcast
1:35 AM 24.6 °F 10.9 °F 18.5 °F 78% 30.10 in 10.0 mi WNW 18.4 mph 23.0 mph N/A   Overcast
1:55 AM 24.3 °F 11.7 °F 18.1 °F 77% 30.10 in 10.0 mi NW 15.0 mph 23.0 mph N/A   Overcast
2:15 AM 23.5 °F 10.8 °F 17.4 °F 77% 30.12 in 10.0 mi WNW 15.0 mph - N/A   Overcast
2:35 AM 22.1 °F 8.9 °F 16.3 °F 79% 30.14 in 10.0 mi WNW 15.0 mph 20.7 mph N/A   Mostly Cloudy
2:55 AM 21.0 °F 7.1 °F 15.3 °F 78% 30.15 in 10.0 mi WNW 16.1 mph 27.6 mph N/A   Overcast
3:15 AM 19.4 °F 3.2 °F 13.5 °F 78% 30.16 in 10.0 mi WNW 20.7 mph 24.2 mph N/A   Overcast
3:35 AM 19.2 °F 4.3 °F 13.8 °F 80% 30.16 in 10.0 mi NW 17.3 mph - N/A   Overcast
3:55 AM 18.9 °F 5.9 °F 14.0 °F 81% 30.17 in 10.0 mi WNW 12.7 mph 19.6 mph N/A   Mostly Cloudy
4:15 AM 18.5 °F 5.5 °F 13.8 °F 82% 30.17 in 10.0 mi WNW 12.7 mph - N/A   Scattered Clouds
4:35 AM 18.3 °F 5.2 °F 13.8 °F 83% 30.18 in 10.0 mi WNW 12.7 mph - N/A   Clear
4:55 AM 18.1 °F 5.6 °F 13.6 °F 83% 30.18 in 10.0 mi WNW 11.5 mph - N/A   Clear
5:15 AM 18.0 °F 6.9 °F 13.5 °F 83% 30.18 in 10.0 mi West 9.2 mph - N/A   Clear
5:35 AM 17.6 °F 6.4 °F 13.5 °F 84% 30.19 in 10.0 mi West 9.2 mph - N/A   Clear
5:55 AM 17.4 °F 6.2 °F 13.3 °F 84% 30.19 in 10.0 mi West 9.2 mph - N/A   Clear
6:15 AM 17.6 °F 6.4 °F 13.5 °F 84% 30.20 in 10.0 mi West 9.2 mph - N/A   Clear
6:35 AM 17.6 °F 5.7 °F 13.1 °F 83% 30.21 in 10.0 mi West 10.4 mph - N/A   Clear
6:55 AM 17.6 °F 6.4 °F 13.1 °F 83% 30.22 in 10.0 mi West 9.2 mph - N/A   Clear
7:15 AM 17.4 °F 6.2 °F 12.7 °F 82% 30.23 in 10.0 mi West 9.2 mph - N/A   Clear
7:35 AM 17.1 °F 5.8 °F 12.4 °F 82% 30.23 in 10.0 mi WNW 9.2 mph - N/A   Clear
7:55 AM 17.2 °F 5.2 °F 12.2 °F 81% 30.24 in 10.0 mi WNW 10.4 mph - N/A   Clear
8:35 AM 18.3 °F 7.3 °F 12.2 °F 77% 30.25 in 10.0 mi West 9.2 mph - N/A   Clear
8:55 AM 19.4 °F 9.5 °F 12.0 °F 73% 30.26 in 10.0 mi West 8.1 mph - N/A   Clear
9:15 AM 20.3 °F 9.0 °F 12.0 °F 70% 30.28 in 10.0 mi West 10.4 mph - N/A   Clear
9:35 AM 21.4 °F 11.1 °F 11.8 °F 67% 30.28 in 10.0 mi WNW 9.2 mph - N/A   Clear
9:55 AM 22.3 °F 12.2 °F 11.1 °F 62% 30.30 in 10.0 mi WNW 9.2 mph - N/A   Clear
10:15 AM 23.0 °F 13.9 °F 10.6 °F 59% 30.29 in 10.0 mi WNW 8.1 mph - N/A   Clear
10:35 AM 24.4 °F 15.6 °F 11.1 °F 57% 30.30 in 10.0 mi WNW 8.1 mph - N/A   Clear
10:55 AM 25.3 °F 15.3 °F 12.2 °F 58% 30.30 in 10.0 mi WNW 10.4 mph - N/A   Clear
11:15 AM 26.4 °F 17.3 °F 13.8 °F 59% 30.30 in 10.0 mi WNW 9.2 mph - N/A   Clear
11:35 AM 27.3 °F 19.1 °F 16.0 °F 62% 30.30 in 10.0 mi WNW 8.1 mph - N/A   Clear
11:55 AM 28.4 °F 21.2 °F 16.5 °F 61% 30.29 in 10.0 mi West 6.9 mph - N/A   Clear
12:15 PM 29.1 °F 23.0 °F 17.1 °F 61% 30.28 in 10.0 mi WNW 5.8 mph - N/A   Clear
12:35 PM 29.5 °F 24.5 °F 17.2 °F 60% 30.28 in 10.0 mi West 4.6 mph - N/A   Clear
12:55 PM 30.2 °F 24.3 °F 18.0 °F 60% 30.26 in 10.0 mi West 5.8 mph - N/A   Clear
1:15 PM 30.9 °F 24.3 °F 18.7 °F 61% 30.26 in 10.0 mi West 6.9 mph - N/A   Clear
1:35 PM 31.3 °F 24.7 °F 19.2 °F 61% 30.26 in 10.0 mi WSW 6.9 mph - N/A   Clear
1:55 PM 32.0 °F 27.5 °F 19.4 °F 60% 30.26 in 10.0 mi WSW 4.6 mph - N/A   Clear
2:15 PM 32.0 °F 26.4 °F 19.2 °F 59% 30.26 in 10.0 mi SW 5.8 mph - N/A   Clear
2:35 PM 32.9 °F 27.5 °F 19.4 °F 58% 30.26 in 10.0 mi WSW 5.8 mph - N/A   Clear
2:55 PM 33.3 °F 27.9 °F 19.0 °F 56% 30.26 in 10.0 mi SW 5.8 mph - N/A   Clear
3:15 PM 34.0 °F 28.0 °F 19.8 °F 56% 30.26 in 10.0 mi WSW 6.9 mph - N/A   Clear
3:35 PM 34.0 °F 29.8 °F 19.6 °F 56% 30.26 in 10.0 mi SW 4.6 mph - N/A   Clear
3:55 PM 34.2 °F 29.0 °F 20.7 °F 58% 30.28 in 10.0 mi SSW 5.8 mph - N/A   Clear
4:35 PM 33.3 °F 30.2 °F 21.4 °F 62% 30.26 in 10.0 mi SSW 3.5 mph - N/A   Clear
4:55 PM 32.0 °F 27.5 °F 22.1 °F 67% 30.26 in 10.0 mi SSW 4.6 mph - N/A   Clear
5:15 PM 30.9 °F 27.5 °F 21.2 °F 67% 30.26 in 10.0 mi South 3.5 mph - N/A   Clear
5:35 PM 31.8 °F 28.5 °F 20.3 °F 62% 30.26 in 10.0 mi South 3.5 mph - N/A   Clear
6:15 PM 28.6 °F 23.5 °F 19.6 °F 69% 30.26 in 10.0 mi South 4.6 mph - N/A   Clear
6:35 PM 28.0 °F 21.7 °F 19.8 °F 71% 30.26 in 10.0 mi South 5.8 mph - N/A   Clear
6:55 PM 28.4 °F 21.2 °F 19.9 °F 71% 30.25 in 10.0 mi South 6.9 mph - N/A   Clear
7:15 PM 28.4 °F 21.2 °F 19.9 °F 71% 30.26 in 10.0 mi South 6.9 mph - N/A   Clear
7:35 PM 27.7 °F 19.6 °F 20.1 °F 73% 30.26 in 10.0 mi South 8.1 mph - N/A   Clear
7:55 PM 27.7 °F 18.8 °F 20.3 °F 74% 30.26 in 10.0 mi South 9.2 mph - N/A   Clear
8:15 PM 27.9 °F 19.1 °F 20.3 °F 73% 30.25 in 10.0 mi South 9.2 mph - N/A   Clear
8:35 PM 28.4 °F 19.7 °F 20.8 °F 73% 30.25 in 10.0 mi South 9.2 mph - N/A   Clear
9:15 PM 28.6 °F 20.7 °F 20.5 °F 72% 30.23 in 10.0 mi South 8.1 mph - N/A   Clear
9:55 PM 28.6 °F 19.3 °F 20.3 °F 71% 30.21 in 10.0 mi South 10.4 mph - N/A   Clear
10:15 PM 28.4 °F 19.1 °F 20.3 °F 72% 30.21 in 10.0 mi South 10.4 mph - N/A   Clear
10:35 PM 28.2 °F 18.3 °F 20.1 °F 72% 30.21 in 10.0 mi South 11.5 mph - N/A   Clear
10:55 PM 27.7 °F 18.8 °F 19.9 °F 73% 30.21 in 10.0 mi South 9.2 mph - N/A   Clear
11:35 PM 27.3 °F 17.1 °F 19.9 °F 74% 30.20 in 10.0 mi South 11.5 mph - N/A   Clear
11:55 PM 27.3 °F 17.7 °F 19.6 °F 73% 30.19 in 10.0 mi SSE 10.4 mph - N/A   Clear